Weather observations for the past three days for
Evergreen, Middleton Field
Imperial (Metric)
Date Time (cdt) Wind (mph) Vis. (mi.) Weather Sky Cond. Temperature (ºF) Relative Humidity Wind Chill (°F) Heat Index (°F) Pressure Precipitation (in)
Air Dwpt 6 hour altimeter (in) sea level (mb) 1 hr 3 hr 6 hr
Max. Min.
23 12:53 S 6 10.00 A Few Clouds FEW048 90 75 91 75 62% 100 30.09 1018.4
23 11:53 Vrbl 6 10.00 Fair CLR 89.1 73.9 61% 98 30.1 1019.0
23 10:53 W 5 10.00 Mostly Cloudy SCT027 BKN033 86 75 70% 95 30.12 1019.5
23 09:53 Calm 10.00 Partly Cloudy SCT018 86 75.9 72% 96 30.11 1019.2
23 08:53 SW 3 10.00 Fair CLR 82.9 77 82% 92 30.1 1019.0
23 07:53 Calm 10.00 Fair CLR 78.1 75 90% 81 30.09 1018.7
23 06:53 Calm 8.00 Fair CLR 75 73 75.9 73 94% 73 30.08 1018.4
23 05:53 Calm 6.00 Fog/Mist CLR 73.9 72 94% 30.07 1017.9
23 04:53 Calm 8.00 Fair CLR 73.9 72 94% 30.06 1017.5
23 03:53 Calm 10.00 Fair CLR 73.9 72 94% 30.05 1017.3
23 02:53 Calm 10.00 Fair CLR 75 73 94% 73 30.05 1017.3
23 01:53 Calm 6.00 Fog/Mist CLR 75 73 94% 73 30.05 1017.2
23 00:53 Calm 10.00 Mostly Cloudy BKN038 75.9 73.9 77 73.9 94% 75 30.06 1017.4 0.47
22 23:53 SW 3 7.00 Fair CLR 75 73 94% 73 30.06 1017.6
22 22:53 Calm 8.00 Fair CLR 75 73.9 96% 73 30.06 1017.6
22 21:53 Calm 9.00 Mostly Cloudy BKN034 BKN042 75 73.9 96% 73 30.05 1017.4 0.47
22 20:53 Calm 6.00 Fog/Mist SCT033 SCT045 75 73.9 96% 73 30.04 1016.8 0.26
22 19:53 SW 3 2.50 Heavy Rain Fog/Mist SCT039 BKN055 OVC095 75 73 94% 73 30.04 1016.9 0.21
22 18:53 N 9 G 17 0.25 Thunderstorm Heavy Rain Fog BKN012 OVC030 77 75 89.1 75 94% 78 30.02 1016.4 0.74 0.79
22 17:53 SE 5 10.00 Fair CLR 84 73 70% 90 29.99 1015.1
22 16:53 S 7 10.00 Fair CLR 84 73 70% 90 29.98 1014.8
22 15:53 SE 7 10.00 Fair CLR 82.9 75.9 79% 91 30 1015.5 0.05
22 14:53 Calm 3.00 Thunderstorm Light Rain Fog/Mist FEW050 SCT080 BKN100 75 73 94% 73 30.03 1016.4 0.05
22 13:53 Vrbl 6 10.00 Thunderstorm in Vicinity SCT034 87.1 73 63% 95 30.03 1016.6
22 12:53 S 5 10.00 Partly Cloudy SCT029 87.1 73.9 88 73 65% 95 30.05 1017.1
22 11:53 S 7 10.00 Mostly Cloudy BKN018 BKN024 BKN029 84.9 75 72% 93 30.07 1017.8
22 10:53 S 3 10.00 Mostly Cloudy BKN018 81 75 82% 87 30.07 1018.0
22 09:53 SW 3 10.00 Mostly Cloudy BKN011 BKN045 80.1 75 85% 85 30.07 1017.9
22 08:53 SW 5 10.00 Partly Cloudy FEW013 SCT026 SCT031 78.1 75 90% 81 30.06 1017.7
22 06:53 Calm 10.00 Fair CLR 73 72 73 72 96% 30.03 1016.6
22 05:53 Calm 7.00 A Few Clouds FEW004 72 70 94% 30.02 1016.4
22 04:53 Calm 9.00 Fair CLR 72 71.1 97% 30.01 1015.8
22 03:53 Calm 7.00 A Few Clouds FEW004 72 70 94% 30.01 1015.7
22 02:53 Calm 7.00 Fair CLR 73 71.1 94% 30.01 1015.8
22 01:53 SE 5 10.00 Fair CLR 73 71.1 94% 30.04 1016.7
22 00:53 Calm 10.00 Fair CLR 73 71.1 75.9 73 94% 30.06 1017.7 0.4
21 23:53 Calm 10.00 Fair CLR 73 71.1 94% 30.08 1018.1
21 22:53 Calm 10.00 Fair CLR 73 71.1 94% 30.06 1017.8
21 21:53 Calm 10.00 Fair CLR 73 71.1 94% 30.05 1017.4 0.4
21 20:53 E 7 10.00 Overcast BKN020 OVC026 73.9 71.1 91% 30.06 1017.5
21 19:53 N 3 10.00 Mostly Cloudy FEW026 BKN034 BKN046 73 71.1 94% 30.05 1017.2 0.4
21 18:53 Vrbl 5 8.00 Thunderstorm Light Rain BKN028 BKN055 OVC120 75.9 72 89.1 73.9 88% 76 30.02 1016.4 0.53 0.53
21 17:53 SW 5 10.00 Fair CLR 82.9 75 77% 90 30 1015.5
21 16:53 S 8 10.00 Overcast BKN026 OVC033 84.9 73.9 70% 92 29.99 1015.3
21 15:53 SW 7 10.00 A Few Clouds FEW027 FEW038 FEW045 86 73.9 67% 94 29.99 1015.3
21 14:53 SW 8 10.00 Partly Cloudy SCT024 SCT030 88 75 66% 98 30.02 1016.0
21 13:53 SW 7 10.00 Fair CLR 84 75.9 77% 93 30.04 1016.7
21 12:53 S 6 10.00 Fair CLR 77 72 82.9 73.9 85% 78 30.03 1016.7 0.01 0.02
21 11:53 Vrbl 3 10.00 Light Rain FEW022 SCT055 BKN080 73.9 68 82% 30.06 1017.8 0.01
21 10:53 W 3 10.00 Thunderstorm in Vicinity CLR 82 75.9 82% 89 30.09 1018.4
21 09:53 SW 6 10.00 Partly Cloudy FEW014 SCT022 SCT027 82 75 79% 89 30.07 1017.7
21 08:53 Calm 10.00 Overcast BKN005 OVC012 79 75.9 90% 83 30.07 1017.7
21 07:53 Calm 2.00 Fog/Mist OVC002 77 75.9 96% 78 30.07 1017.7
21 06:53 Calm 1.50 Fog/Mist OVC002 75.9 75 75.9 75 97% 75 30.06 1017.4
21 05:53 Calm 2.50 Fog/Mist OVC002 75.9 75 97% 75 30.04 1016.9
21 04:53 Calm 0.75 Fog/Mist OVC002 75 73.9 96% 73 30.04 1016.9
21 03:53 Calm 7.00 Overcast OVC003 75.9 73.9 94% 75 30.04 1016.7
21 02:53 Calm 8.00 Fair CLR 75.9 73.9 94% 75 30.04 1016.9
21 01:53 Calm 7.00 A Few Clouds FEW012 75 73.9 96% 73 30.05 1017.2
21 00:53 S 3 10.00 Fair CLR 75.9 73.9 84 75 94% 75 30.07 1017.8
20 23:53 Calm 10.00 Fair CLR 75.9 73.9 94% 75 30.08 1018.2
20 22:53 Calm 10.00 A Few Clouds FEW032 77 75 94% 78 30.07 1017.8
20 21:53 SE 5 10.00 Fair CLR 79 75 88% 83 30.06 1017.3
20 20:53 S 6 10.00 Fair CLR 79 75 88% 83 30.05 1017.2
20 19:53 S 5 10.00 A Few Clouds FEW031 81 75 82% 87 30.04 1016.9
20 18:53 S 6 10.00 Fair CLR 84 75 84.9 78.1 74% 92 30.03 1016.4
20 17:53 SE 6 10.00 Fair CLR 84 75 74% 92 30.03 1016.5
20 16:53 S 6 10.00 Fair CLR 82.9 75 77% 90 30.05 1017.0
20 15:53 S 6 10.00 Fair CLR 82.9 75 77% 90 30.04 1016.7
20 14:53 SW 8 10.00 Fair CLR 80.1 73.9 82% 85 30.05 1017.3
20 13:53 S 10 10.00 Fair CLR 79 73.9 85% 83 30.07 1017.9
Date Time (cdt) Wind (mph) Vis. (mi.) Weather Sky Cond. Air Dwpt Max. Min. Relative Humidity Wind Chill (°F) Heat Index (°F) altimeter (in) sea level (mb) 1 hr 3 hr 6 hr
6 hour
Temperature (ºF) Pressure Precipitation (in)